TimeEST,TemperatureF,Dew PointF,Humidity,Sea Level PressureIn,VisibilityMPH,Wind Direction,Wind SpeedMPH,Gust SpeedMPH,PrecipitationIn,Events,Conditions,WindDirDegrees,DateUTC
12:51 AM,44.1,28.0,53,30.35,10.0,ESE,4.6,-,N/A,,Scattered Clouds,120,2013-11-06 05:51:00
1:51 AM,42.1,28.0,58,30.32,10.0,SSE,5.8,-,N/A,,Scattered Clouds,150,2013-11-06 06:51:00
2:51 AM,43.0,28.0,56,30.30,10.0,SSE,4.6,-,N/A,,Partly Cloudy,150,2013-11-06 07:51:00
3:51 AM,42.1,28.9,60,30.28,10.0,Calm,Calm,-,N/A,,Partly Cloudy,0,2013-11-06 08:51:00
4:51 AM,41.0,30.0,65,30.28,10.0,SSE,3.5,-,N/A,,Mostly Cloudy,150,2013-11-06 09:51:00
5:51 AM,44.1,34.0,68,30.27,10.0,SSE,3.5,-,N/A,,Scattered Clouds,160,2013-11-06 10:51:00
6:51 AM,44.1,36.0,73,30.27,10.0,Calm,Calm,-,N/A,,Scattered Clouds,0,2013-11-06 11:51:00
7:51 AM,48.0,39.9,74,30.25,10.0,South,5.8,-,N/A,,Mostly Cloudy,170,2013-11-06 12:51:00
8:51 AM,54.0,45.0,72,30.22,10.0,South,9.2,-,N/A,,Mostly Cloudy,190,2013-11-06 13:51:00
9:51 AM,60.1,46.9,62,30.20,10.0,South,11.5,-,N/A,,Scattered Clouds,190,2013-11-06 14:51:00
10:51 AM,63.0,46.9,56,30.18,10.0,South,9.2,-,N/A,,Scattered Clouds,170,2013-11-06 15:51:00
11:51 AM,66.0,46.9,50,30.16,10.0,SSW,13.8,-,N/A,,Scattered Clouds,210,2013-11-06 16:51:00
12:51 PM,70.0,46.9,44,30.11,10.0,SSW,11.5,19.6,N/A,,Mostly Cloudy,200,2013-11-06 17:51:00
1:51 PM,71.1,46.9,42,30.08,10.0,SSW,16.1,24.2,N/A,,Mostly Cloudy,200,2013-11-06 18:51:00
2:51 PM,70.0,48.0,46,30.06,10.0,SW,21.9,32.2,N/A,,Mostly Cloudy,230,2013-11-06 19:51:00
3:51 PM,70.0,50.0,49,30.04,10.0,SSW,15.0,19.6,N/A,,Mostly Cloudy,210,2013-11-06 20:51:00
4:51 PM,69.1,50.0,51,30.03,10.0,SSW,10.4,-,N/A,,Mostly Cloudy,200,2013-11-06 21:51:00
5:51 PM,66.9,50.0,54,30.01,10.0,South,5.8,-,N/A,,Mostly Cloudy,180,2013-11-06 22:51:00
6:51 PM,68.0,48.9,50,29.99,10.0,SSW,6.9,-,N/A,,Overcast,200,2013-11-06 23:51:00
7:51 PM,66.9,48.9,52,29.97,10.0,SSW,6.9,-,N/A,,Overcast,200,2013-11-07 00:51:00
8:51 PM,68.0,48.9,50,29.95,10.0,SSW,10.4,-,N/A,,Overcast,210,2013-11-07 01:51:00
9:51 PM,60.1,55.9,86,29.99,6.0,West,12.7,-,0.00,Rain,Light Rain,280,2013-11-07 02:51:00
10:16 PM,59.0,57.2,94,29.96,2.0,West,5.8,-,0.04,Rain,Light Rain,280,2013-11-07 03:16:00
10:51 PM,57.9,57.0,97,29.96,4.0,South,3.5,-,0.10,Rain,Light Rain,180,2013-11-07 03:51:00
11:33 PM,57.2,55.4,94,29.94,5.0,SSW,9.2,-,0.04,Rain,Light Rain,210,2013-11-07 04:33:00
11:51 PM,57.9,55.9,93,29.94,4.0,SSW,8.1,-,0.06,Rain,Light Rain,210,2013-11-07 04:51:00